Weather History for Eveleth, MN

Change the Weather History Date:

Sunday, May 11, 2014

  Actual Average Record
Temperature  
Mean Temperature 56 °F -  
Max Temperature 71 °F 60 °F 82 °F (1991)
Min Temperature 41 °F 36 °F 30 °F (2002)
Degree Days  
Heating Degree Days 9    
Growing Degree Days 6 (Base 50)    
Moisture  
Dew Point 42 °F    
Average Humidity 63    
Maximum Humidity 100    
Minimum Humidity 33    
Precipitation  
Precipitation 0.03 in - - ()
Sea Level Pressure  
Sea Level Pressure 29.90 in    
Wind  
Wind Speed 4 mph (ESE)    
Max Wind Speed 15 mph    
Max Gust Speed 22 mph    
Visibility 10 miles    
Events Rain    
Averages and records for this station are not official NWS values.
T = Trace of Precipitation, MM = Missing Value Source: NWS Daily Summary

Daily Weather History Graph

Daily Weather History Graph

Search for Another Location

Airport:

Trip Planner

Search our weather history database for the weather conditions in past years. The results will help you decide how hot, cold, wet, or windy it might be!

Date:

Astronomy

May. 11, 2014 Rise Set
Actual Time 5:38 AM CDT 8:35 PM CDT
Civil Twilight 5:02 AM CDT 9:11 PM CDT
Nautical Twilight 4:16 AM CDT 9:57 PM CDT
Astronomical Twilight 3:21 AM CDT 10:53 PM CDT
Moon 5:18 PM CDT (5/11) 3:58 AM CDT (5/11)
Length of Visible Light 16h 08m
Length of Day
14h 56m
Waxing Gibbous, 89% of the Moon is Illuminated
May 11
Waxing Gibbous
May 14
Full
May 21
Last Quarter
May 28
New
Jun 5
First Quarter

Hourly Weather History & Observations

Time (CDT) Temp. Windchill Dew Point Humidity Pressure Visibility Wind Dir Wind Speed Gust Speed Precip Events Conditions
12:14 AM 42.8 °F - 35.6 °F 76% 29.88 in 10.0 mi Calm Calm - N/A   Mostly Cloudy
12:33 AM 42.8 °F - 37.4 °F 81% 29.88 in 10.0 mi Calm Calm - N/A   Overcast
12:54 AM 42.8 °F - 35.6 °F 76% 29.89 in 10.0 mi Calm Calm - N/A   Overcast
1:14 AM 46.4 °F - 33.8 °F 62% 29.88 in 10.0 mi Calm Calm - N/A   Overcast
1:33 AM 44.6 °F - 35.6 °F 71% 29.87 in 10.0 mi Calm Calm - N/A   Overcast
1:54 AM 44.6 °F - 37.4 °F 76% 29.87 in 10.0 mi Calm Calm - N/A Rain Rain
2:13 AM 44.6 °F 43.1 °F 41.0 °F 87% 29.87 in 10.0 mi NNE 3.5 mph - N/A Rain Light Rain
2:34 AM 44.6 °F - 42.8 °F 93% 29.88 in 10.0 mi Calm Calm - 0.01 in Rain Light Rain
2:54 AM 44.6 °F - 42.8 °F 93% 29.88 in 10.0 mi Calm Calm - 0.02 in Rain Rain
3:13 AM 44.6 °F - 42.8 °F 93% 29.89 in 10.0 mi Calm Calm - 0.01 in   Drizzle
3:34 AM 44.6 °F 42.2 °F 42.8 °F 93% 29.88 in 10.0 mi NE 4.6 mph - 0.01 in   Overcast
3:54 AM 44.6 °F 43.1 °F 42.8 °F 93% 29.88 in 10.0 mi NE 3.5 mph - 0.01 in   Overcast
4:13 AM 44.6 °F 43.1 °F 42.8 °F 93% 29.88 in 10.0 mi NE 3.5 mph - N/A   Overcast
4:34 AM 42.8 °F 40.1 °F 41.0 °F 93% 29.88 in 10.0 mi NE 4.6 mph - N/A   Scattered Clouds
4:53 AM 42.8 °F - 41.0 °F 93% 29.89 in 10.0 mi Calm Calm - N/A   Clear
5:14 AM 42.8 °F - 41.0 °F 93% 29.88 in 10.0 mi Calm Calm - N/A   Clear
5:33 AM 42.8 °F 40.1 °F 41.0 °F 93% 29.88 in 10.0 mi ENE 4.6 mph - N/A   Clear
5:54 AM 41.0 °F 39.0 °F 41.0 °F 100% 29.88 in 10.0 mi NE 3.5 mph - N/A   Clear
6:14 AM 42.8 °F - 41.0 °F 93% 29.89 in 10.0 mi Calm Calm - N/A   Scattered Clouds
6:33 AM 42.8 °F 40.1 °F 41.0 °F 93% 29.89 in 10.0 mi NE 4.6 mph - N/A   Scattered Clouds
6:54 AM 42.8 °F - 41.0 °F 93% 29.91 in 10.0 mi Calm Calm - N/A   Scattered Clouds
7:14 AM 44.6 °F 42.2 °F 42.8 °F 93% 29.91 in 10.0 mi ENE 4.6 mph - N/A   Mostly Cloudy
7:33 AM 46.4 °F - 42.8 °F 87% 29.93 in 10.0 mi Calm Calm - N/A   Overcast
7:54 AM 50.0 °F - 44.6 °F 82% 29.93 in 10.0 mi ENE 4.6 mph - N/A   Mostly Cloudy
8:14 AM 50.0 °F - 46.4 °F 87% 29.92 in 10.0 mi ENE 4.6 mph - N/A   Scattered Clouds
8:33 AM 51.8 °F - 48.2 °F 88% 29.91 in 10.0 mi ENE 3.5 mph - N/A   Scattered Clouds
8:54 AM 53.6 °F - 50.0 °F 88% 29.90 in 10.0 mi Calm Calm - N/A   Clear
9:14 AM 57.2 °F - 50.0 °F 77% 29.90 in 10.0 mi East 6.9 mph - N/A   Clear
9:33 AM 59.0 °F - 50.0 °F 72% 29.89 in 10.0 mi SE 4.6 mph - N/A   Clear
9:54 AM 60.8 °F - 50.0 °F 68% 29.91 in 10.0 mi SE 8.1 mph - N/A   Clear
10:14 AM 62.6 °F - 50.0 °F 63% 29.91 in 10.0 mi SE 9.2 mph - N/A   Clear
10:33 AM 62.6 °F - 48.2 °F 59% 29.92 in 10.0 mi SE 8.1 mph - N/A   Clear
10:54 AM 64.4 °F - 48.2 °F 56% 29.92 in 10.0 mi SE 6.9 mph - N/A   Scattered Clouds
11:14 AM 64.4 °F - 46.4 °F 52% 29.92 in 10.0 mi SE 6.9 mph - N/A   Scattered Clouds
11:33 AM 66.2 °F - 46.4 °F 49% 29.92 in 10.0 mi SSE 11.5 mph - N/A   Clear
11:54 AM 64.4 °F - 46.4 °F 52% 29.91 in 10.0 mi SE 8.1 mph - N/A   Scattered Clouds
12:14 PM 68.0 °F - 46.4 °F 46% 29.90 in 10.0 mi SSE 5.8 mph 16.1 mph N/A   Scattered Clouds
12:34 PM 68.0 °F - 46.4 °F 46% 29.90 in 10.0 mi SSE 9.2 mph - N/A   Mostly Cloudy
12:53 PM 68.0 °F - 46.4 °F 46% 29.90 in 10.0 mi SE 9.2 mph - N/A   Mostly Cloudy
1:14 PM 69.8 °F - 46.4 °F 43% 29.90 in 10.0 mi SE 9.2 mph - N/A   Scattered Clouds
1:34 PM 71.6 °F - 46.4 °F 41% 29.89 in 10.0 mi SSE 11.5 mph - N/A   Scattered Clouds
1:53 PM 71.6 °F - 44.6 °F 38% 29.89 in 10.0 mi SSE 15.0 mph - N/A   Clear
2:14 PM 71.6 °F - 42.8 °F 35% 29.90 in 10.0 mi South 4.6 mph 17.3 mph N/A   Clear
2:34 PM 71.6 °F - 42.8 °F 35% 29.89 in 10.0 mi South 10.4 mph 16.1 mph N/A   Clear
2:53 PM 71.6 °F - 42.8 °F 35% 29.88 in 10.0 mi SSE 6.9 mph 16.1 mph N/A   Clear
3:14 PM 71.6 °F - 41.0 °F 33% 29.88 in 10.0 mi South 11.5 mph 18.4 mph N/A   Clear
3:34 PM 71.6 °F - 42.8 °F 35% 29.89 in 10.0 mi SSE 12.7 mph 19.6 mph N/A   Clear
3:53 PM 71.6 °F - 44.6 °F 38% 29.89 in 10.0 mi SSE 13.8 mph 21.9 mph N/A   Clear
4:14 PM 71.6 °F - 42.8 °F 35% 29.90 in 10.0 mi SSE 12.7 mph 20.7 mph N/A   Clear
4:34 PM 71.6 °F - 44.6 °F 38% 29.89 in 10.0 mi SE 12.7 mph 18.4 mph N/A   Clear
4:53 PM 71.6 °F - 44.6 °F 38% 29.90 in 10.0 mi SSE 13.8 mph 17.3 mph N/A   Scattered Clouds
5:14 PM 69.8 °F - 44.6 °F 40% 29.90 in 10.0 mi SE 11.5 mph 18.4 mph N/A   Scattered Clouds
5:34 PM 68.0 °F - 42.8 °F 40% 29.90 in 10.0 mi SE 11.5 mph 18.4 mph N/A   Clear
5:53 PM 68.0 °F - 42.8 °F 40% 29.91 in 10.0 mi ESE 10.4 mph 16.1 mph N/A   Clear
6:14 PM 64.4 °F - 42.8 °F 45% 29.91 in 10.0 mi ESE 8.1 mph 16.1 mph N/A   Clear
6:34 PM 62.6 °F - 42.8 °F 48% 29.91 in 10.0 mi East 5.8 mph - N/A   Clear
6:53 PM 60.8 °F - 41.0 °F 48% 29.91 in 10.0 mi SE 6.9 mph - N/A   Clear
7:14 PM 59.0 °F - 41.0 °F 51% 29.91 in 10.0 mi ESE 6.9 mph - N/A   Scattered Clouds
7:33 PM 59.0 °F - 41.0 °F 51% 29.91 in 10.0 mi ESE 6.9 mph - N/A   Scattered Clouds
7:54 PM 57.2 °F - 39.2 °F 51% 29.90 in 10.0 mi SE 5.8 mph - N/A   Clear
8:14 PM 57.2 °F - 41.0 °F 55% 29.91 in 10.0 mi SE 4.6 mph - N/A   Clear
8:33 PM 57.2 °F - 41.0 °F 55% 29.92 in 10.0 mi SE 5.8 mph - N/A   Clear
8:54 PM 53.6 °F - 37.4 °F 54% 29.92 in 10.0 mi SE 9.2 mph - N/A   Clear
9:14 PM 51.8 °F - 35.6 °F 54% 29.92 in 10.0 mi ESE 5.8 mph - N/A   Scattered Clouds
9:34 PM 51.8 °F - 35.6 °F 54% 29.92 in 10.0 mi East 5.8 mph - N/A   Mostly Cloudy
9:54 PM 51.8 °F - 35.6 °F 54% 29.93 in 10.0 mi ESE 5.8 mph - N/A   Scattered Clouds
10:13 PM 51.8 °F - 35.6 °F 54% 29.93 in 10.0 mi East 5.8 mph - N/A   Scattered Clouds
10:34 PM 51.8 °F - 35.6 °F 54% 29.93 in 10.0 mi East 4.6 mph - N/A   Scattered Clouds
10:54 PM 51.8 °F - 33.8 °F 50% 29.95 in 10.0 mi ENE 4.6 mph - N/A   Overcast
11:13 PM 51.8 °F - 33.8 °F 50% 29.95 in 10.0 mi East 5.8 mph - N/A   Overcast
11:34 PM 51.8 °F - 33.8 °F 50% 29.94 in 10.0 mi ENE 4.6 mph - N/A   Overcast
11:54 PM 51.8 °F - 33.8 °F 50% 29.94 in 10.0 mi ENE 4.6 mph - N/A   Overcast